Location: St Paul
(33.9360°N, 83.4200°W)
Time: 14:38:07
(UTC-04:00)

SJ-6B - Pass Details

Date: 06 October 2017
Orbit: 510 x 584 km, 97.7° (Epoch: 17 October)

Event Time Altitude Azimuth Distance (km) Brightness Sun altitude
Exits shadow 20:43:28 33° 161° (SSE) 921 3.7 -20.0°
Maximum altitude 20:45:09 82° 77° (ENE) 543 2.6 -20.4°
Drops below altitude 10° 20:48:58 10° 350° (N) 1,770 5.6 -21.2°
Sets 20:51:03 0° 350° (N) 2,652 6.5 -21.6°
